[[{"header":{"parameterUnit":"m.s-1","parameterCategory":1,"la1":30.2991,"la2":30.254,"lo1":-89.0895,"lo2":-89.0444,"dy":0.0017,"dx":0.0017,"nx":28,"ny":28,"refTime":"2025-07-12T09:00:00:Z","depth":0,"parameterNumber":2,"parameterNumberName":"U-component_of_WINDS"},"data":[0,0,0,0,0,0,0,0,0,0,0,0,0,0,0,0,0,0,0,0,0,0,0,0,0,0,0,0,0,0,0,0,0,0,0,0,0,0,0,0,0,0,0,0,0,0,0,0,0,0,0,0,0,0,0,0,0,0,1.414,1.4141,0,1.4195,1.4195,1.4196,1.4196,1.4195,1.4194,1.4194,1.4246,1.4248,1.425,0,0,0,0,0,0,0,0,0,0,0,0,0,1.4032,1.4034,1.414,1.4141,1.4141,1.4194,1.4195,1.4196,1.4196,1.4195,1.4194,1.4193,1.4246,1.4248,1.4251,0,0,0,0,0,0,0,0,0,0,0,0,0,1.4082,1.4034,1.414,1.4148,1.4149,1.4194,1.4195,1.4196,1.4196,1.4195,1.4194,1.4193,1.4245,1.4248,1.4251,1.4291,0,0,1.426,1.4262,0,0,0,0,0,0,0,0,1.4079,1.4086,1.4146,1.4147,1.4149,1.4187,1.4176,1.4228,1.4196,1.4178,1.4194,1.4192,1.4227,1.4232,1.4244,1.4293,1.4296,1.4261,1.4263,1.4264,1.4265,0,0,0,0,0,0,0,1.4075,1.4083,1.4161,1.4147,1.4149,1.4147,1.4153,1.4186,1.4208,1.418,1.418,1.4186,1.4228,1.4241,1.4246,1.4297,1.4261,1.4263,1.4265,1.4266,1.4379,1.438,0,0,0,0,0,0,1.4071,1.408,1.416,1.4163,1.4111,1.415,1.4157,1.4176,1.4208,1.4211,1.4187,1.4186,1.4237,1.4242,1.4247,1.4295,1.4264,1.4267,1.4269,1.4378,1.4379,1.438,0,0,0,0,0,0,1.4068,1.4078,1.4158,1.4122,1.4132,1.4153,1.4175,1.4178,1.4191,1.4213,1.4217,1.4197,1.4236,1.4243,1.428,1.4296,1.4268,1.4271,1.4376,1.4378,1.438,1.439,0,0,0,0,0,0,1.4065,1.4077,1.4093,1.4122,1.4134,1.419,1.4176,1.4179,1.4197,1.4196,1.4224,1.4227,1.4236,1.4275,1.4283,1.43,1.4273,1.4375,1.4377,1.4379,1.4389,1.4392,1.4395,0,0,0,0,0,1.4061,1.4094,1.4094,1.4104,1.4155,1.4191,1.4198,1.4208,1.4198,1.4214,1.4228,1.4226,1.4294,1.4279,1.4288,1.4306,1.4374,1.4377,1.4379,1.4387,1.4391,1.4395,0,0,0,0,0,0,1.4066,1.4098,1.4099,1.4142,1.4164,1.4191,1.4212,1.4213,1.4237,1.4235,1.4246,1.4252,1.4288,1.4301,1.4284,1.4345,1.4332,1.4337,1.4336,1.434,1.4343,1.4339,1.4276,0,0,0,0,0,1.4072,1.41,1.4126,1.4162,1.4173,1.419,1.4207,1.4212,1.4235,1.4244,1.4261,1.4283,1.4308,1.4325,1.435,1.4391,1.4396,1.4408,1.4411,1.4414,1.4417,1.4437,1.4442,1.4389,1.4389,1.4389,0,0,1.4085,1.4106,1.4123,1.4163,1.4181,1.4208,1.4198,1.4228,1.4247,1.4249,1.4284,1.4297,1.4321,1.436,1.4378,1.4372,1.4433,1.4417,1.4419,1.4421,1.444,1.4445,1.445,1.439,1.439,1.439,0,0,1.4121,1.4141,1.4172,1.419,1.4217,1.4228,1.4236,1.4263,1.4272,1.4308,1.4309,1.4332,1.4377,1.4393,1.4408,1.445,1.4448,1.4458,1.4474,1.4494,1.4498,1.4502,1.4515,1.452,1.4461,1.4461,1.4461,0,1.4133,1.4176,1.4187,1.4217,1.4233,1.4237,1.4266,1.4283,1.4317,1.4328,1.4321,1.4376,1.4393,1.4434,1.4444,1.4457,1.4464,1.4454,1.4497,1.4501,1.4504,1.4517,1.4522,1.4462,1.4462,1.4462,1.4462,0,1.4188,1.4217,1.4238,1.4271,1.429,1.432,1.4335,1.4353,1.4357,1.4368,1.4404,1.4424,1.4452,1.4463,1.4467,1.4504,1.45,1.4495,1.4482,1.451,1.4522,1.4527,1.4463,1.4463,1.4462,1.4462,0,0,1.4228,1.4267,1.4274,1.4288,1.4318,1.434,1.4369,1.4398,1.4412,1.4435,1.4458,1.4496,1.4491,1.4508,1.4514,1.4531,1.4561,1.4524,1.4525,1.4528,1.46,1.4602,1.4608,1.456,1.4561,1.4562,1.4598,0,1.4266,1.4319,1.433,1.4375,1.44,1.4403,1.4428,1.4448,1.446,1.4482,1.4494,1.452,1.4513,1.4523,1.454,1.4553,1.4575,1.4551,1.458,1.4581,1.4572,1.4615,1.4617,1.465,1.4603,1.4603,1.4604,0,1.4318,1.4343,1.439,1.4415,1.4426,1.4449,1.4475,1.4497,1.4519,1.4526,1.4544,1.4548,1.4576,1.4563,1.4601,1.4585,1.4597,1.4605,1.4607,1.4609,1.4593,1.4615,1.4661,1.4665,1.4612,1.4611,1.4611,0,1.434,1.4385,1.4419,1.4431,1.4462,1.4477,1.449,1.4512,1.4528,1.455,1.456,1.4586,1.4599,1.4618,1.4628,1.4618,1.4665,1.4653,1.467,1.467,1.4679,1.4678,1.4724,1.469,1.469,1.469,1.4689,0,1.4381,1.4409,1.4429,1.445,1.4481,1.4493,1.4523,1.4536,1.4555,1.4576,1.4581,1.4601,1.4614,1.4635,1.4643,1.4673,1.4679,1.4684,1.4686,1.4683,1.4682,1.469,1.4687,1.4691,1.4691,1.469,1.469,0,1.4411,1.4426,1.4462,1.4488,1.4495,1.4517,1.4538,1.4557,1.4569,1.4596,1.4603,1.4621,1.4646,1.4659,1.469,1.4696,1.4728,1.4729,1.4721,1.4721,1.4736,1.4734,1.4789,1.4796,1.4758,1.4758,1.4758,0,1.4435,1.4457,1.4485,1.45,1.4514,1.4539,1.4555,1.4567,1.4583,1.461,1.4625,1.4651,1.4672,1.4713,1.4727,1.4751,1.4752,1.4769,1.4755,1.4751,1.475,1.4747,1.4749,1.4771,1.4771,1.4772,1.4772,0,1.4476,1.4481,1.4505,1.4531,1.4551,1.4572,1.4592,1.4604,1.4619,1.4637,1.4663,1.468,1.4712,1.4737,1.4762,1.4774,1.4775,1.4776,1.4781,1.4778,1.4771,1.4773,1.4726,1.4775,1.4774,1.4774,1.4774,1.4774,1.4502,1.4521,1.4543,1.4569,1.4586,1.4604,1.4623,1.4637,1.466,1.4687,1.4693,1.472,1.474,1.4774,1.4787,1.4807,1.4803,1.4811,1.4812,1.4813,1.4813,1.4769,1.4812,1.4812,1.4812,1.4812,1.4812,0,1.4541,1.4556,1.4579,1.4608,1.4628,1.4628,1.465,1.4666,1.4691,1.471,1.4731,1.476,1.4784,1.4801,1.4825,1.4838,1.4839,1.4844,1.4842,1.4844,1.4817,1.4809,1.4843,1.4842,1.4842,1.4842,1.4842,1.4842,1.4564,1.4595,1.4603,1.4642,1.4656,1.4684,1.4696,1.4713,1.4728,1.4761,1.4781,1.4792,1.481,1.4835,1.4856,1.486,1.4868,1.4873,1.4877,1.485,1.4847,1.4843,1.4836,1.4875,1.4875,1.4902,1.4903,1.4903]},{"header":{"parameterUnit":"m.s-1","parameterCategory":1,"la1":30.2991,"la2":30.254,"lo1":-89.0895,"lo2":-89.0444,"dy":0.0017,"dx":0.0017,"nx":28,"ny":28,"refTime":"2025-07-12T09:00:00:Z","depth":0,"parameterNumber":3,"parameterNumberName":"V-component_of_WINDS"},"data":[0,0,0,0,0,0,0,0,0,0,0,0,0,0,0,0,0,0,0,0,0,0,0,0,0,0,0,0,0,0,0,0,0,0,0,0,0,0,0,0,0,0,0,0,0,0,0,0,0,0,0,0,0,0,0,0,0,0,0.2617,0.2618,0,0.2694,0.2695,0.2695,0.2687,0.2685,0.2684,0.2683,0.2768,0.2771,0.2774,0,0,0,0,0,0,0,0,0,0,0,0,0,0.2469,0.2472,0.2617,0.2618,0.2619,0.2694,0.2695,0.2696,0.2687,0.2685,0.2684,0.2682,0.2767,0.2771,0.2775,0,0,0,0,0,0,0,0,0,0,0,0,0,0.2538,0.2473,0.2617,0.2624,0.2625,0.2693,0.2695,0.2696,0.2687,0.2685,0.2683,0.2682,0.2765,0.277,0.2775,0.2844,0,0,0.2791,0.2793,0,0,0,0,0,0,0,0,0.2534,0.2544,0.2622,0.2623,0.2625,0.2678,0.2673,0.2746,0.2688,0.2664,0.2683,0.2681,0.274,0.2747,0.2766,0.2848,0.2852,0.2791,0.2794,0.2797,0.2798,0,0,0,0,0,0,0,0.253,0.2541,0.2648,0.2623,0.2625,0.2624,0.2632,0.2687,0.2712,0.2666,0.2665,0.2674,0.2741,0.2761,0.2768,0.2853,0.2791,0.2796,0.2799,0.2801,0.2995,0.2997,0,0,0,0,0,0,0.2522,0.2537,0.2645,0.265,0.2574,0.2628,0.2637,0.2663,0.2711,0.2716,0.2675,0.2673,0.2753,0.2762,0.2771,0.2854,0.2797,0.2801,0.2804,0.2993,0.2996,0.2998,0,0,0,0,0,0,0.2519,0.2532,0.2642,0.2593,0.2607,0.2633,0.2662,0.2666,0.2686,0.2718,0.2723,0.2691,0.2752,0.2763,0.2825,0.2857,0.2804,0.2808,0.2991,0.2994,0.2997,0.3022,0,0,0,0,0,0,0.2515,0.2531,0.2557,0.2594,0.261,0.2694,0.2664,0.2669,0.2694,0.2692,0.2734,0.274,0.2751,0.2818,0.283,0.2863,0.2812,0.2988,0.2992,0.2996,0.3018,0.3025,0.3031,0,0,0,0,0,0.251,0.2562,0.2558,0.2571,0.2642,0.2696,0.2706,0.2716,0.2697,0.2723,0.2743,0.2738,0.2851,0.2824,0.2838,0.2873,0.2986,0.2991,0.2995,0.3015,0.3024,0.3031,0,0,0,0,0,0,0.2531,0.2567,0.2563,0.2629,0.2659,0.2694,0.2728,0.2725,0.2763,0.276,0.2773,0.2782,0.2845,0.2865,0.2834,0.2942,0.2916,0.2924,0.2926,0.2935,0.2941,0.2936,0.2817,0,0,0,0,0,0.2543,0.2582,0.2612,0.2668,0.2683,0.2703,0.2727,0.2732,0.2765,0.2778,0.2803,0.2837,0.288,0.2908,0.295,0.302,0.303,0.3051,0.3058,0.3063,0.307,0.3108,0.3118,0.3013,0.3013,0.3013,0,0,0.2569,0.2593,0.2618,0.2672,0.2696,0.2738,0.2714,0.276,0.2791,0.2786,0.2845,0.2865,0.2904,0.297,0.3,0.2989,0.3101,0.3069,0.3073,0.3077,0.3114,0.3124,0.3133,0.3016,0.3016,0.3015,0,0,0.2637,0.266,0.2707,0.2731,0.2767,0.2779,0.2791,0.2826,0.2838,0.2897,0.2894,0.2933,0.3006,0.3034,0.3057,0.3133,0.313,0.3147,0.3182,0.3219,0.3227,0.3235,0.3262,0.3272,0.3153,0.3153,0.3153,0,0.2666,0.2727,0.2733,0.2778,0.2803,0.2797,0.2846,0.287,0.2918,0.2936,0.2921,0.3012,0.3038,0.311,0.3128,0.3147,0.3162,0.3143,0.3225,0.3232,0.324,0.3266,0.3276,0.3155,0.3155,0.3155,0.3155,0,0.276,0.2802,0.2837,0.2881,0.2909,0.2956,0.2971,0.2999,0.3,0.3015,0.3075,0.3105,0.3152,0.3169,0.3173,0.3242,0.3233,0.3222,0.3197,0.3251,0.3276,0.3286,0.3158,0.3157,0.3156,0.3156,0,0,0.2847,0.2891,0.2903,0.2923,0.2961,0.2994,0.3041,0.3084,0.3108,0.3141,0.3182,0.3243,0.3231,0.3258,0.3265,0.3297,0.3355,0.3281,0.3283,0.3294,0.3433,0.3442,0.3454,0.3352,0.3354,0.3356,0.343,0,0.2919,0.2999,0.3006,0.3079,0.3118,0.3112,0.3153,0.3181,0.3196,0.3232,0.3249,0.3292,0.3274,0.329,0.3321,0.3341,0.3384,0.3336,0.3392,0.3394,0.3383,0.3467,0.3477,0.3545,0.344,0.3442,0.3443,0,0.3015,0.3048,0.3124,0.3155,0.3172,0.3208,0.3247,0.3282,0.3314,0.3322,0.335,0.3352,0.3401,0.3373,0.3441,0.3409,0.3432,0.3445,0.3448,0.3454,0.3422,0.3476,0.3568,0.3578,0.3458,0.3457,0.3456,0,0.307,0.3134,0.3187,0.3204,0.3241,0.3267,0.3284,0.3314,0.3339,0.3374,0.3391,0.3432,0.3455,0.3487,0.35,0.3478,0.3568,0.354,0.3577,0.3577,0.3598,0.3596,0.3694,0.3611,0.3611,0.361,0.361,0,0.3151,0.3198,0.3212,0.3246,0.3298,0.3305,0.3358,0.3374,0.34,0.3437,0.3435,0.347,0.3484,0.3522,0.3533,0.3588,0.3598,0.3607,0.361,0.3608,0.3607,0.3624,0.362,0.3613,0.3613,0.3612,0.3612,0,0.3223,0.3234,0.3292,0.3321,0.333,0.3367,0.3393,0.3426,0.3438,0.3485,0.3497,0.3518,0.3562,0.3577,0.3632,0.3638,0.3703,0.3701,0.3691,0.3692,0.3728,0.3724,0.3841,0.3857,0.3762,0.3763,0.3764,0,0.3274,0.331,0.3342,0.3365,0.3382,0.342,0.3445,0.3453,0.3479,0.3517,0.3545,0.3588,0.3623,0.3695,0.3716,0.3757,0.3757,0.3795,0.3763,0.376,0.3758,0.3756,0.3759,0.3801,0.3802,0.3803,0.3803,0,0.3364,0.3367,0.3401,0.3437,0.3466,0.3496,0.3524,0.3544,0.3556,0.3586,0.3629,0.3656,0.371,0.3753,0.3795,0.3815,0.3812,0.3813,0.3823,0.3823,0.3816,0.382,0.3708,0.3811,0.381,0.3809,0.3809,0.3809,0.3427,0.3458,0.3485,0.3523,0.3544,0.3571,0.3602,0.3617,0.3653,0.3696,0.3699,0.3746,0.3777,0.3832,0.3853,0.3891,0.3881,0.3896,0.3901,0.3904,0.3907,0.3808,0.3899,0.3899,0.3899,0.3898,0.3898,0,0.3517,0.3533,0.3568,0.3606,0.3637,0.3628,0.3658,0.3685,0.3726,0.3753,0.3786,0.3837,0.3878,0.3901,0.3943,0.3969,0.3968,0.3979,0.3978,0.3983,0.3914,0.3901,0.3979,0.3979,0.3979,0.3979,0.3979,0.3979,0.3568,0.3619,0.3625,0.3687,0.3704,0.3748,0.3766,0.3791,0.3812,0.3867,0.3901,0.3914,0.394,0.3983,0.4021,0.4027,0.4043,0.4055,0.406,0.3996,0.3988,0.398,0.3967,0.4058,0.4058,0.4125,0.4126,0.4126]}]]